Retour au catalogue

PRAETORIAN SDA_621

ActifMilitairePO
NORAD 65584·PAYLOAD·🇺🇸 United States

Lancé Sep 10, 2025 depuis Vandenberg Space Force Base

Loading…

Prochains Passages (prochaines 24 heures)

TLE

FraisSource: Space-Track

Époque: Sep 14, 2026, 09:12 UTC

1 65584U 25203V   26257.38349181  .00000063  00000-0  46305-4 0  9990
2 65584  81.2993 288.1709 0006424 309.3395  50.7192 13.83809277 51036

Suivez PRAETORIAN SDA_621 en temps réel avec AllMySat

Download on the App Store